Location: Le Petit-Vavre
(46.5081°N, 1.5239°E)
Time: 14:47:47
(UTC+00:00)

USA 307 - Pass Details

Date: 03 March 2021
Orbit: 567 x 577 km, 54.0° (Epoch: 16 April)

Event Time Altitude Azimuth Distance (km) Brightness Sun altitude
Rises 19:55:42 0° 294° (WNW) 2,785 7.8 -23.4°
Reaches altitude 10° 19:58:10 10° 305° (NW) 1,884 6.5 -23.8°
Maximum altitude 20:02:01 31° 9° (N) 1,009 4.2 -24.5°
Enters shadow 20:02:01 31° 9° (N) 1,009 4.2 -24.5°
